CAPE
1508 1471 1434 1452 1875 2216 2198 2099 1498 1754 2630 3251 3304 3002 2763 2409 1851 1947 2204 2181 2017 1630 1368 1622 1168 1085 1672 1866 1682 1492 1420 1521 1508
560 656 680 905 1028 1269 2103 1958 1217 857 961 1048 1182 1356 1694 2138 2461 2768 2785 2415 2158 1922 1672 1445 1356 1547 2028 1980 1703 1662 1746 1472 1369
163 204 306 249 422 640 711 906 1175 1059 729 737 808 990 1126 1664 1329 1377 1738 2358 2324 2232 2093 1867 1851 1835 1653 1557 1742 1635 1391 1513 1445
18 19 99 19 3 0 11 17 129 418 614 843 787 764 969 1081 1215 1124 1073 1550 1983 2368 2238 2040 1799 1559 1445 1525 1479 1272 1561 1476 1358
0 0 0 0 0 0 0 0 0 0 0 28 176 570 634 951 1259 931 709 1124 791 864 1235 1743 1702 1751 1696 1638 1650 1664 1601 1504 1674
0 0 0 0 0 0 0 0 0 0 0 0 0 23 22 176 522 442 993 756 449 700 684 487 521 1738 1749 1689 1875 1922 1836 1740 1676
0 0 2 0 0 0 0 0 0 0 0 0 0 0 0 0 36 123 355 774 347 710 512 635 327 855 532 1021 1843 1891 1919 1960 1854
0 0 0 0 0 0 0 0 0 0 0 0 0 0 0 0 0 0 157 379 467 536 643 627 969 1160 1092 1166 1247 1451 1769 1770 1607
0 0 0 0 0 0 0 0 0 0 0 0 0 0 0 0 0 0 0 0 78 265 342 497 600 835 990 904 901 791 655 371 236
0 0 0 0 0 0 0 0 0 0 0 0 0 0 2 0 0 0 0 0 0 2 98 272 424 542 744 1052 1010 1147 1183 853 379
0 0 0 0 0 0 0 0 0 0 0 0 0 0 0 5 0 0 0 0 0 0 0 49 238 519 699 683 699 1034 880 419 211
0 0 0 0 0 0 0 0 0 0 0 0 0 9 3 10 6 0 0 0 0 0 0 0 60 235 426 818 917 976 891 590 423
0 0 0 0 0 0 0 0 0 0 0 0 0 1 3 0 2 0 0 0 0 0 0 0 46 184 313 706 942 902 990 724 428
0 0 0 0 0 0 0 0 0 0 0 3 9 3 3 5 1 0 0 1 0 0 0 0 0 41 128 503 970 1038 1051 890 244
0 0 0 0 0 0 0 0 0 0 0 0 3 1 1 1 0 1 4 2 0 0 0 0 0 8 92 358 559 597 630 358 1
0 0 0 0 0 0 0 1 0 1 0 0 0 0 0 0 0 1 0 0 0 0 0 0 0 6 83 127 21 6 61 73 4
0 0 0 0 0 0 1 1 0 0 0 0 0 0 1 0 0 0 0 0 0 7 3 8 17 8 14 8 17 26 257 251 70
0 0 0 0 0 0 0 1 0 0 0 0 0 1 1 1 0 0 0 0 0 0 10 17 14 7 11 28 11 7 28 5 3
0 0 0 0 0 0 0 0 0 0 2 1 0 1 1 1 0 0 0 0 1 1 7 5 0 0 0 0 0 0 1 1 1
0 0 0 0 0 0 0 0 0 6 0 1 0 4 2 3 1 3 6 7 8 9 2 19 0 0 0 1 1 1 0 1 1
CIN
-158 -165 -171 -162 -137 -61 -48 -52 -216 -236 -95 -54 -46 -44 -62 -76 -119 -81 -48 -29 -36 -59 -85 -69 -90 -97 -63 -63 -62 -72 -75 -60 -57
-228 -254 -287 -286 -235 -226 -103 -149 -251 -354 -331 -279 -260 -230 -185 -78 -44 -24 -29 -33 -35 -46 -65 -91 -86 -64 -45 -50 -64 -64 -60 -66 -64
-253 -300 -354 -439 -374 -277 -286 -256 -200 -232 -307 -299 -293 -239 -225 -101 -164 -157 -90 -35 -20 -21 -31 -49 -58 -71 -73 -34 -40 -43 -64 -49 -60
-337 -343 -338 -468 -171 0 -147 -148 -451 -322 -256 -198 -219 -225 -166 -129 -132 -150 -181 -80 -58 -27 -28 -25 -29 -43 -53 -57 -57 -71 -55 -52 -48
0 0 0 0 0 0 0 0 0 0 0 -488 -300 -154 -139 -72 -47 -103 -162 -104 -191 -161 -110 -49 -36 -45 -51 -59 -63 -52 -48 -42 -31
0 0 0 0 0 0 0 0 0 0 0 0 0 -339 -411 -225 -79 -99 -27 -90 -158 -124 -134 -186 -157 -44 -43 -51 -52 -47 -51 -48 -44
0 0 -164 0 0 0 0 0 0 0 0 0 0 0 0 0 -279 -185 -75 -20 -103 -46 -88 -95 -205 -90 -165 -105 -44 -48 -42 -45 -49
0 0 0 0 0 0 0 0 0 0 0 0 0 0 0 0 0 -10 -131 -60 -37 -27 -21 -34 -18 -13 -31 -40 -55 -46 -22 -30 -32
0 0 0 0 0 0 0 0 0 0 0 0 0 0 0 0 0 0 0 0 -130 -57 -48 -20 -15 -12 -16 -24 -45 -69 -81 -127 -180
0 0 0 0 0 0 0 0 0 0 0 0 0 0 -3 0 0 0 0 0 0 -24 -86 -43 -22 -21 -18 -12 -25 -14 -10 -28 -104
0 0 0 0 0 0 0 0 0 0 0 0 0 0 -3 -4 0 0 0 0 0 0 0 -125 -42 -16 -32 -37 -62 -22 -24 -80 -136
0 0 0 0 0 0 0 0 0 0 0 0 0 -12 -21 -22 -6 0 0 0 0 0 0 0 -173 -63 -48 -18 -40 -33 -26 -41 -76
0 0 0 0 0 0 0 0 0 0 0 0 0 -4 -2 -1 -3 0 0 0 0 0 0 0 -259 -115 -66 -41 -46 -73 -49 -56 -101
0 0 0 0 0 0 0 0 0 0 0 -6 -4 -9 -6 -3 -3 -1 0 -4 0 0 0 0 0 -304 -160 -63 -49 -65 -53 -59 -166
0 0 0 0 0 0 0 0 0 0 0 -8 -7 -12 -10 -9 -5 -1 0 -2 0 0 0 -1 0 -232 -255 -94 -89 -94 -62 -124 -13
0 0 0 0 0 0 0 -10 -3 -3 0 -8 -1 0 0 0 0 0 0 0 0 0 0 0 0 -110 -335 -210 -162 -191 -126 -134 -29
0 0 0 0 0 0 0 -5 -1 0 -2 0 0 0 0 0 0 0 0 0 0 -13 -19 -32 -27 -38 -45 -90 -234 -105 -136 -103 -156
0 0 0 0 0 0 0 -2 -1 -3 0 -3 0 0 0 0 0 0 0 0 0 -2 -25 -28 -33 -62 -68 -131 -62 -80 -88 -102 -118
0 0 0 0 0 0 0 -4 -1 0 -4 -3 0 0 0 0 0 0 0 -1 0 -40 -18 -73 0 0 0 0 0 0 0 0 0
0 0 0 0 0 0 0 0 -1 -9 -8 -5 -1 0 0 0 0 0 0 0 0 0 -33 -39 0 0 0 0 0 0 0 0 0
Wind_Speed
11 11 9 12 9 10 12 10 13 10 4 3 3 4 8 7 7 5 5 6 5 4 4 5 6 7 9 7 7 6 6 4 5
9 8 9 12 12 12 10 13 14 14 12 8 7 8 9 7 6 4 5 6 5 5 6 5 6 7 6 7 7 7 6 5 5
7 7 8 11 10 9 7 8 7 5 7 6 5 5 6 5 5 7 5 5 7 7 6 5 6 4 4 5 6 7 6 5 6
9 7 6 7 8 8 9 9 9 8 6 7 5 6 4 4 3 4 5 5 4 6 6 6 5 6 6 4 6 7 6 6 7
8 7 6 6 7 8 7 7 7 8 9 10 8 6 6 6 2 2 2 3 3 3 6 3 4 4 5 6 6 6 6 7 7
8 6 6 6 8 7 7 7 7 7 7 7 7 7 7 7 6 6 4 3 4 3 3 5 6 4 5 6 6 7 7 7 7
8 6 6 7 7 6 5 5 5 5 6 6 7 7 7 7 7 7 7 5 5 6 6 5 6 6 6 7 6 6 6 7 8
9 8 8 7 6 5 5 4 6 6 7 7 7 9 8 7 7 7 8 7 6 6 5 6 6 5 5 6 5 5 6 6 6
9 7 7 7 6 5 5 5 4 5 5 5 6 6 7 8 10 9 8 10 10 6 6 6 6 6 6 7 5 8 9 6 5
8 7 6 5 5 3 3 3 4 7 6 6 6 6 6 6 7 8 8 9 9 10 8 6 6 6 6 6 6 9 12 13 6
7 6 6 4 3 4 4 5 6 6 6 6 6 6 6 6 5 6 7 7 7 8 7 7 7 8 7 7 7 10 8 9 6
7 7 5 3 3 3 6 7 7 7 7 7 6 6 8 8 8 8 8 8 7 8 8 9 7 8 10 7 8 10 10 7 6
7 7 7 5 5 6 7 6 7 7 6 6 6 7 8 8 8 9 10 9 8 6 9 9 6 8 10 10 10 10 11 8 4
7 6 7 7 8 6 6 7 7 6 6 7 7 6 7 9 10 10 12 9 8 8 9 9 9 9 10 12 11 12 12 12 4
7 8 8 8 7 6 6 6 5 5 5 7 7 8 9 8 9 9 9 11 11 10 9 9 9 8 10 8 9 10 11 11 8
8 8 6 7 7 6 5 5 5 6 6 7 9 10 11 10 11 12 10 10 11 9 8 6 7 7 7 6 5 5 6 8 5
7 6 6 6 7 6 7 6 8 9 6 8 9 11 11 10 10 11 9 7 8 7 6 6 5 5 4 4 5 5 4 4 2
6 5 5 5 6 4 5 7 8 5 9 7 9 9 10 10 8 9 10 8 6 8 9 7 5 5 4 4 6 5 2 3 4
5 3 3 4 6 5 3 4 7 5 6 7 8 8 8 8 8 8 8 8 9 10 12 17 8 9 7 4 8 6 3 3 6
5 4 3 5 5 4 1 4 4 4 5 7 7 7 8 8 8 7 7 8 8 10 11 12 10 15 10 2 9 8 5 7 6
Wind_Direction
67 48 29 70 58 94 122 106 50 64 65 113 165 199 195 193 200 208 210 208 209 224 210 216 218 242 226 200 206 213 213 217 230
57 58 53 53 60 33 57 67 60 59 58 52 46 39 43 17 332 240 215 223 213 220 233 234 231 222 219 208 217 215 210 221 229
73 55 52 51 50 55 40 47 75 79 97 76 58 38 39 42 27 18 351 278 244 235 237 243 257 275 260 233 236 214 211 231 237
84 52 59 65 57 46 43 39 36 34 37 60 46 43 32 28 19 16 351 347 315 262 229 237 254 263 261 231 234 238 222 229 238
92 69 56 69 67 56 40 34 32 25 16 24 12 14 8 5 322 288 282 321 357 0 335 271 224 240 247 243 242 235 234 235 238
113 118 99 80 68 53 33 22 29 24 18 16 5 357 6 347 355 347 288 279 295 312 283 290 303 300 267 258 238 229 227 227 232
159 142 89 77 61 48 24 31 32 13 9 5 353 7 5 349 343 332 320 296 275 278 270 271 281 261 273 273 264 249 242 230 231
105 84 79 68 53 26 2 15 8 17 43 33 18 3 342 335 326 328 325 320 322 311 298 274 259 249 246 253 253 268 253 254 264
94 82 67 52 33 6 20 22 18 10 29 22 20 352 334 355 0 350 347 345 323 312 304 302 306 295 267 260 260 263 265 240 249
100 89 81 66 52 45 352 347 13 24 18 24 15 347 335 11 357 349 345 341 336 340 323 306 294 288 291 287 279 268 256 258 258
107 107 99 71 21 1 357 51 41 27 25 13 351 2 341 358 341 331 325 330 327 328 324 316 312 297 268 272 275 272 288 267 255
135 137 139 127 73 9 43 43 36 35 11 351 341 359 346 347 333 322 316 312 311 311 309 306 297 296 294 276 273 262 268 273 265
105 108 108 87 58 54 48 30 34 13 350 353 355 344 337 332 323 314 304 299 294 295 293 285 291 297 297 281 276 269 252 256 241
112 115 104 78 67 63 47 35 27 9 347 0 339 326 318 322 313 312 303 292 298 302 296 290 287 286 287 283 276 277 274 269 249
93 80 67 72 60 55 42 37 23 348 345 335 336 330 320 313 307 309 300 304 299 295 289 281 278 281 282 282 271 268 280 280 218
83 79 66 74 66 50 27 32 22 348 331 339 338 331 322 315 313 315 307 301 295 291 281 264 274 274 275 279 295 276 337 300 260
79 67 72 77 60 25 359 13 354 345 333 338 331 320 315 311 313 308 306 302 301 288 280 278 273 276 275 321 305 285 281 236 259
72 71 66 93 85 46 7 350 340 330 336 326 323 322 319 312 312 311 307 306 306 306 294 251 265 259 246 237 249 265 26 1 323
76 64 66 68 86 74 9 320 348 327 337 328 318 319 319 312 310 308 305 321 321 307 281 293 295 277 264 300 273 91 80 234 245
65 33 61 115 115 110 345 302 310 324 331 325 325 332 329 328 325 325 332 334 336 329 340 340 37 40 65 265 281 300 292 287 309